Date String (YYYY-MM-DD hh:mm:ss) UTC,Instrument flags,Ambient pressure (hPa),Sample flow (lpm),Bypass flow (lpm),Sample temperature (°C),Ambient temperature (°C),ASC tube jacket temperature (°C),LED temperature (°C),Box temperature (°C),Sample RH (%),Span deviation,Mass concentration (μg/m³),Mass concentration (μg/m³),Mass concentration (μg/m³)
DateTimeUTC,F1_M11,P_M11,Q1_M11,Q2_M11,T1_M11,T2_M11,T3_M11,T4_M11,T5_M11,U1_M11,ZSPAN_M11,X0_M11,X2_M11,X1_M11
2022-11-01 18:00:00,,0822.9,5.03,0.00,29.5,28.3,00.0,38.2,31.4,09.9,0000.0,0008.59,0003.51,0002.94
2022-11-01 18:01:00,,0823.0,4.99,0.00,29.5,28.3,00.0,38.2,31.4,09.8,0000.0,0009.37,0003.48,0002.88
2022-11-01 18:02:00,,0823.0,4.99,0.00,29.5,28.3,00.0,38.2,31.4,09.7,0000.0,0009.64,0003.45,0002.81
2022-11-01 18:03:00,,0823.0,5.00,0.00,29.5,28.4,00.0,38.2,31.4,09.7,0000.0,0009.88,0003.47,0002.76
2022-11-01 18:04:00,,0823.0,5.02,0.00,29.6,28.4,00.0,38.3,31.4,09.8,0000.0,0010.54,0003.50,0002.71
2022-11-01 18:05:00,,0822.9,4.99,0.00,29.6,28.4,00.0,38.3,31.4,09.7,0000.0,0010.62,0003.48,0002.66
2022-11-01 18:06:00,,0822.9,4.99,0.00,29.6,28.4,00.0,38.3,31.4,09.7,0000.0,0010.87,0003.46,0002.60
2022-11-01 18:07:00,,0822.8,5.00,0.00,29.6,28.4,00.0,38.3,31.4,09.7,0000.0,0010.92,0003.41,0002.55
2022-11-01 18:08:00,,0822.8,5.01,0.00,29.6,28.4,00.0,38.3,31.4,09.8,0000.0,0010.87,0003.42,0002.52
2022-11-01 18:09:00,,0822.8,4.99,0.00,29.6,28.4,00.0,38.3,31.4,09.8,0000.0,0011.10,0003.40,0002.50
2022-11-01 18:10:00,,0822.8,4.99,0.00,29.7,28.5,00.0,38.3,31.5,09.8,0000.0,0010.98,0003.37,0002.46
2022-11-01 18:11:00,,0822.8,5.01,0.00,29.7,28.5,00.0,38.4,31.5,09.9,0000.0,0010.64,0003.33,0002.43
2022-11-01 18:12:00,,0822.8,4.99,0.00,29.7,28.5,00.0,38.4,31.6,09.8,0000.0,0010.51,0003.34,0002.42
2022-11-01 18:13:00,,0822.8,5.00,0.00,29.7,28.5,00.0,38.4,31.6,09.9,0000.0,0010.69,0003.35,0002.42
2022-11-01 18:14:00,,0822.7,5.00,0.00,29.7,28.5,00.0,38.4,31.6,09.9,0000.0,0010.70,0003.32,0002.41
2022-11-01 18:15:00,,0822.7,5.01,0.00,29.8,28.6,00.0,38.4,31.6,09.9,0000.0,0010.61,0003.25,0002.39
2022-11-01 18:16:00,,0822.6,5.00,0.00,29.8,28.6,00.0,38.5,31.6,09.8,0000.0,0009.73,0003.19,0002.38
2022-11-01 18:17:00,,0822.6,4.99,0.00,29.8,28.6,00.0,38.5,31.7,09.7,0000.0,0009.36,0003.19,0002.37
2022-11-01 18:18:00,,0822.7,5.01,0.00,29.8,28.6,00.0,38.5,31.6,09.7,0000.0,0009.77,0003.18,0002.36
2022-11-01 18:19:00,,0822.7,4.98,0.00,29.8,28.6,00.0,38.5,31.6,09.9,0000.0,0009.69,0003.14,0002.33
2022-11-01 18:20:00,,0822.6,5.02,0.00,29.8,28.6,00.0,38.5,31.7,10.0,0000.0,0009.59,0003.14,0002.31
2022-11-01 18:21:00,,0822.6,5.00,0.00,29.8,28.6,00.0,38.5,31.7,09.8,0000.0,0010.00,0003.15,0002.31
2022-11-01 18:22:00,,0822.6,4.99,0.00,29.9,28.6,00.0,38.6,31.7,09.8,0000.0,0010.42,0003.17,0002.30
2022-11-01 18:23:00,,0822.5,5.01,0.00,29.9,28.6,00.0,38.6,31.7,09.8,0000.0,0010.03,0003.18,0002.29
2022-11-01 18:24:00,,0822.5,4.99,0.00,29.9,28.7,00.0,38.6,31.7,09.9,0000.0,0009.29,0003.16,0002.29
2022-11-01 18:25:00,,0822.4,4.99,0.00,29.9,28.7,00.0,38.6,31.8,09.8,0000.0,0009.31,0003.18,0002.30
2022-11-01 18:26:00,,0822.5,5.00,0.00,29.9,28.7,00.0,38.6,31.7,09.8,0000.0,0009.31,0003.19,0002.31
2022-11-01 18:27:00,,0822.4,5.01,0.00,29.9,28.7,00.0,38.6,31.8,09.8,0000.0,0009.59,0003.24,0002.32
2022-11-01 18:28:00,,0822.4,4.99,0.00,29.9,28.7,00.0,38.6,31.8,09.9,0000.0,0009.97,0003.28,0002.33
2022-11-01 18:29:00,,0822.4,5.02,0.00,29.9,28.7,00.0,38.7,31.8,09.9,0000.0,0009.85,0003.29,0002.34
2022-11-01 18:30:00,,0822.4,4.99,0.00,30.0,28.8,00.0,38.7,31.8,10.0,0000.0,0009.68,0003.35,0002.37
2022-11-01 18:31:00,,0822.4,5.01,0.00,30.0,28.8,00.0,38.7,31.8,09.9,0000.0,0009.67,0003.37,0002.40
2022-11-01 18:32:00,,0822.4,4.98,0.00,30.0,28.8,00.0,38.7,31.8,09.9,0000.0,0009.46,0003.36,0002.43
2022-11-01 18:33:00,,0822.4,5.02,0.00,30.0,28.8,00.0,38.7,31.8,09.9,0000.0,0010.00,0003.37,0002.46
2022-11-01 18:34:00,,0822.3,5.00,0.00,30.0,28.8,00.0,38.7,31.8,09.9,0000.0,0010.12,0003.37,0002.50
2022-11-01 18:35:00,,0822.4,4.99,0.00,30.0,28.8,00.0,38.8,31.9,09.8,0000.0,0010.09,0003.37,0002.53
2022-11-01 18:36:00,,0822.4,5.00,0.00,30.1,28.9,00.0,38.8,31.9,09.7,0000.0,0011.03,0003.39,0002.55
2022-11-01 18:37:00,,0822.4,5.00,0.00,30.1,28.9,00.0,38.8,32.0,09.7,0000.0,0010.66,0003.38,0002.55
2022-11-01 18:38:00,,0822.3,5.01,0.00,30.1,28.9,00.0,38.8,32.0,09.9,0000.0,0010.51,0003.38,0002.56
2022-11-01 18:39:00,,0822.3,5.00,0.00,30.1,28.9,00.0,38.8,32.0,09.8,0000.0,0010.37,0003.38,0002.57
2022-11-01 18:40:00,,0822.2,4.99,0.00,30.1,28.9,00.0,38.8,32.0,09.8,0000.0,0011.15,0003.40,0002.59
2022-11-01 18:41:00,,0822.2,5.01,0.00,30.1,28.9,00.0,38.9,32.0,09.6,0000.0,0011.79,0003.38,0002.59
2022-11-01 18:42:00,,0822.1,4.99,0.00,30.1,28.9,00.0,38.9,32.0,09.7,0000.0,0011.89,0003.39,0002.58
2022-11-01 18:43:00,,0822.1,5.01,0.00,30.2,28.9,00.0,38.9,32.0,09.8,0000.0,0012.24,0003.43,0002.58
2022-11-01 18:44:00,,0822.1,4.99,0.00,30.2,29.0,00.0,38.9,32.0,09.7,0000.0,0011.57,0003.45,0002.55
2022-11-01 18:45:00,,0822.1,5.02,0.00,30.2,29.0,00.0,38.9,32.0,09.8,0000.0,0011.15,0003.42,0002.53
2022-11-01 18:46:00,,0822.1,4.98,0.00,30.2,29.0,00.0,38.9,32.0,09.6,0000.0,0011.07,0003.44,0002.53
2022-11-01 18:47:00,,0822.1,5.02,0.00,30.2,29.0,00.0,38.9,32.1,09.6,0000.0,0010.47,0003.45,0002.53
2022-11-01 18:48:00,,0822.1,4.99,0.00,30.2,29.1,00.0,39.0,32.1,09.7,0000.0,0010.67,0003.46,0002.55
2022-11-01 18:49:00,,0822.1,5.01,0.00,30.2,29.1,00.0,39.0,32.1,09.7,0000.0,0010.66,0003.47,0002.54
2022-11-01 18:50:00,,0822.1,5.00,0.00,30.3,29.1,00.0,39.0,32.1,09.7,0000.0,0010.63,0003.45,0002.54
2022-11-01 18:51:00,,0822.0,4.99,0.00,30.3,29.1,00.0,39.0,32.1,09.8,0000.0,0010.04,0003.46,0002.57
2022-11-01 18:52:00,,0822.0,5.00,0.00,30.3,29.1,00.0,39.0,32.2,09.7,0000.0,0009.18,0003.46,0002.58
2022-11-01 18:53:00,,0821.9,4.99,0.00,30.3,29.1,00.0,39.0,32.2,09.7,0000.0,0009.48,0003.44,0002.61
2022-11-01 18:54:00,,0821.9,5.01,0.00,30.3,29.2,00.0,39.1,32.2,09.7,0000.0,0009.69,0003.44,0002.63
2022-11-01 18:55:00,,0822.1,5.00,0.00,30.4,29.2,00.0,39.1,32.2,09.7,0000.0,0010.32,0003.43,0002.65
2022-11-01 18:56:00,,0821.8,5.01,0.00,30.4,29.2,00.0,39.1,32.2,09.6,0000.0,0010.68,0003.48,0002.66
2022-11-01 18:57:00,,0821.8,4.99,0.00,30.4,29.2,00.0,39.1,32.2,09.6,0000.0,0010.62,0003.45,0002.67
2022-11-01 18:58:00,,0821.8,5.00,0.00,30.4,29.2,00.0,39.1,32.2,09.7,0000.0,0010.79,0003.44,0002.68
2022-11-01 18:59:00,,0821.8,5.00,0.00,30.4,29.2,00.0,39.1,32.2,09.7,0000.0,0010.71,0003.47,0002.69
